Погода в Адыямане

Турция     37°45′50″N   38°16′35″E
темп.,
°C
ветер,
м/с
пор.,
м/с
влажн.,
%
обл.,
%
осадки,
мм/ч
давл.,
гПа
погр.,
м
28 февраля, вс
вс2800:00+6с12560 0.0 101922
03:00+5всв11600 0.0 101922
06:00+4св11620 0.0 101922
09:00+9ссз00500 0.0 1018101
12:00+12ю21450 0.0 1017924
15:00+13юз33450 0.0 10151402
18:00+11ююз22580 0.0 101428
21:00+9з116522 0.0 101522
1 марта, пн
пн100:00+9ссв016683 0.0 101622
03:00+7св126782 0.1 101622
06:00+7св126992 0.1 101731
09:00+9ссв235688 0.2 1018238
12:00+8ссз336498 0.4 1018796
15:00+10ссв446285 0.8 1016667
18:00+9св236063 0.0 101793
21:00+6ссв225847 0.0 102032
2 марта, вт
вт200:00+6с225783 0.0 102125
03:00+6с225892 0.0 102130
06:00+6ссв226795 0.0 102170
09:00+7всв115973 0.0 1021256
12:00+11в345780 0.0 10201116
15:00+11всв236090 0.8 10181123
18:00+8св1383100 4.8 1018442
21:00+6с2386100 13.5 1020246
3 марта, ср
ср300:00+7св2382100 0.9 1020171
03:00+6всв3487100 1.8 1020330
06:00+5ссв228036 0.0 102041
09:00+8ссз126318 0.0 1020226
12:00+11св335669 0.0 1018908
15:00+13ссв225052 0.0 10161152
18:00+10ссв33620 0.0 101679
21:00+8с34630 0.0 101852
4 марта, чт
чт400:00+7с33620 0.0 101949
03:00+5с33620 0.0 101951
06:00+4с44570 0.0 101965
09:00+7с34480 0.0 1020272
12:00+11ссз22300 0.0 1019901
15:00+13ссз44300 0.0 1017925
18:00+9с34450 0.0 101891
21:00+5с33490 0.0 102140